Weather observations for the past three days for
Burlington/Mount Vernon, Skagit Regional Airport
Imperial (Metric)
Date Time (pdt) Wind (mph) Vis. (mi.) Weather Sky Cond. Temperature (ºF) Relative Humidity Wind Chill (°F) Heat Index (°F) Pressure Precipitation (in)
Air Dwpt 6 hour altimeter (in) sea level (mb) 1 hr 3 hr 6 hr
Max. Min.
16 04:35 Calm 2.50 Fog/Mist SCT001 50 50 100% 30.03 0.0
16 04:15 Calm 0.15 Fog OVC002 51.8 51.8 100% 30.03 0.0
16 03:55 Calm 0.15 Fog OVC002 51.8 51.8 100% 30.04 0.0
16 03:35 Calm 0.15 Fog OVC002 51.8 51.8 100% 30.04 0.0
16 03:15 Calm 1.50 Fog/Mist NULL 51.8 51.8 100% 30.04 0.0
16 02:55 Calm 1.75 Fog/Mist SCT003 50 50 100% 30.04 0.0
16 02:35 Calm 10.00 A Few Clouds FEW003 50 50 100% 30.04 0.0
16 02:15 Calm 10.00 Partly Cloudy SCT003 51.8 51.8 100% 30.04 0.0
16 01:55 Calm 10.00 Partly Cloudy SCT003 51.8 51.8 100% 30.04 0.0
16 01:35 Calm 10.00 A Few Clouds FEW003 51.8 51.8 100% 30.04 0.0
16 01:15 Calm 10.00 Fair CLR 51.8 51.8 100% 30.04 0.0
16 00:55 Calm 10.00 Fair CLR 51.8 51.8 100% 30.04 0.0
16 00:35 Calm 10.00 Fair CLR 53.6 53.6 100% 30.04 0.0
16 00:15 Calm 10.00 Fair CLR 53.6 53.6 100% 30.04 0.0
15 23:55 Calm 10.00 Fair CLR 55.4 55.4 100% 30.04 0.0
15 23:35 Calm 10.00 Fair CLR 55.4 55.4 100% 30.04 0.0
15 23:15 Calm 10.00 Fair CLR 57.2 57.2 100% 30.04 0.0
15 22:55 Calm 10.00 Fair CLR 57.2 57.2 100% 30.04 0.0
15 22:35 Calm 10.00 Fair CLR 57.2 57.2 100% 30.05 0.0
15 22:15 Calm 10.00 Fair CLR 59 59 100% 30.05 0.0
15 21:55 Calm 10.00 Fair CLR 60.8 60.8 100% 30.06 0.0
15 21:35 Calm 10.00 Fair CLR 62.6 62.6 100% 30.05 0.0
15 21:15 Calm 10.00 Fair CLR 60.8 60.8 100% 30.05 0.0
15 20:55 Calm 10.00 Fair CLR 64.4 62.6 94% 30.05 0.0
15 20:35 Calm 9.00 Fair CLR 66.2 64.4 94% 30.05 0.0
15 20:15 Calm 10.00 Fair CLR 66.2 64.4 94% 30.05 0.0
15 19:55 Calm 9.00 Fair CLR 68 64.4 88% 30.05 0.0
15 19:35 Calm 8.00 Fair CLR 69.8 64.4 83% 30.05 0.0
15 19:15 Calm 8.00 Fair CLR 71.6 66.2 83% 30.05 0.0
15 18:55 Calm 8.00 Fair CLR 71.6 64.4 78% 30.05 0.0
15 18:35 Calm 7.00 Fair CLR 71.6 64.4 78% 30.05 0.0
15 18:15 Calm 7.00 Fair CLR 73.4 66.2 78% 30.06 0.0
15 17:55 Calm 6.00 Fair with Haze CLR 73.4 66.2 78% 30.06 0.0
15 17:35 Calm 9.00 Fair CLR 73.4 66.2 78% 30.07 0.0
15 17:15 Calm 8.00 Fair CLR 73.4 66.2 78% 30.07 0.0
15 16:55 Calm 9.00 Fair CLR 73.4 66.2 78% 30.08 0.0
15 16:35 Calm 7.00 Fair CLR 73.4 66.2 78% 30.08 0.0
15 16:15 Calm 7.00 Fair CLR 73.4 66.2 78% 30.09 0.0
15 15:55 Calm 6.00 Fair with Haze CLR 73.4 68 83% 30.09 0.0
15 15:35 Calm 7.00 Fair CLR 73.4 66.2 78% 30.1 0.0
15 15:15 Calm 7.00 Fair CLR 73.4 68 83% 30.1 0.0
15 14:55 Calm 9.00 Fair CLR 71.6 66.2 83% 30.11 0.0
15 14:35 Calm 9.00 Fair CLR 71.6 68 88% 30.11 0.0
15 14:15 Calm 9.00 Fair CLR 71.6 66.2 83% 30.11 0.0
15 13:55 Calm 8.00 Fair CLR 69.8 66.2 88% 30.12 0.0
15 13:35 Calm 9.00 Fair CLR 68 66.2 94% 30.12 0.0
15 13:15 Vrbl 5 G 12 8.00 A Few Clouds FEW017 68 66.2 94% 30.13 0.0
15 12:55 Calm 9.00 Partly Cloudy SCT015 68 66.2 94% 30.13 0.0
15 12:35 Calm 9.00 Overcast OVC015 66.2 66.2 100% 30.13 0.0
15 12:15 Calm 10.00 Overcast OVC013 64.4 64.4 100% 30.14 0.0
15 11:55 Calm 10.00 Overcast OVC012 62.6 62.6 100% 30.14 0.0
15 11:35 Calm 10.00 Overcast OVC010 60.8 60.8 100% 30.15 0.0
15 11:15 Calm 10.00 Overcast OVC009 60.8 60.8 100% 30.15 0.0
15 10:55 Calm 10.00 Overcast OVC009 60.8 60.8 100% 30.15 0.0
15 10:35 S 5 10.00 Overcast OVC008 59 59 100% 30.15 0.0
15 10:15 Calm 10.00 Overcast OVC008 59 59 100% 30.15 0.0
15 09:55 Calm 10.00 Overcast OVC008 59 59 100% 30.15 0.0
15 09:35 S 3 10.00 Overcast OVC009 59 59 100% 30.15 0.0
15 09:15 Calm 10.00 Overcast OVC008 59 59 100% 30.15 0.0
15 08:55 Calm 10.00 Overcast OVC008 57.2 57.2 100% 30.15 0.0
15 08:35 Calm 10.00 Overcast OVC007 57.2 57.2 100% 30.14 0.0
15 08:15 Calm 10.00 Overcast OVC007 57.2 57.2 100% 30.14 0.0
15 07:55 Calm 10.00 Overcast OVC007 57.2 57.2 100% 30.14 0.0
15 07:35 Calm 10.00 Overcast OVC006 57.2 57.2 100% 30.14 0.0
15 07:15 Calm 10.00 Overcast OVC007 55.4 55.4 100% 30.14 0.0
15 06:55 Calm 10.00 Overcast OVC007 55.4 55.4 100% 30.13 0.0
15 06:35 S 5 10.00 Overcast OVC007 55.4 55.4 100% 30.13 0.0
15 06:15 Calm 9.00 Overcast OVC007 53.6 53.6 100% 30.12 0.0
15 05:55 Calm 10.00 Mostly Cloudy BKN007 53.6 53.6 100% 30.12 0.0
15 05:35 Calm 10.00 Overcast OVC006 53.6 53.6 100% 30.12 0.0
15 05:15 Calm 10.00 Overcast OVC007 53.6 53.6 100% 30.12 0.0
15 04:55 Calm 10.00 Overcast BKN008 OVC011 53.6 53.6 100% 30.11 0.0
15 04:15 Calm 10.00 Mostly Cloudy SCT010 BKN031 53.6 53.6 100% 30.11 0.0
15 03:55 Calm 10.00 Partly Cloudy FEW010 FEW016 SCT031 53.6 53.6 100% 30.11 0.0
15 03:35 Calm 10.00 A Few Clouds FEW009 53.6 53.6 100% 30.1 0.0
15 03:15 Calm 9.00 Fair CLR 53.6 53.6 100% 30.1 0.0
15 02:55 S 8 G 14 10.00 Fair CLR 55.4 55.4 100% 30.09 0.0
15 02:35 S 8 10.00 Fair CLR 55.4 55.4 100% 30.09 0.0
15 02:15 S 7 G 14 10.00 Fair CLR 55.4 55.4 100% 30.08 0.0
15 01:55 S 9 10.00 Fair CLR 55.4 55.4 100% 30.08 0.0
15 01:35 S 7 10.00 Fair CLR 55.4 55.4 100% 30.07 0.0
15 01:15 Calm 10.00 Fair CLR 55.4 55.4 100% 30.07 0.0
15 00:55 S 8 10.00 Fair CLR 55.4 55.4 100% 30.07 0.0
15 00:35 S 8 9.00 Fair CLR 55.4 55.4 100% 30.06 0.0
15 00:15 S 8 10.00 Fair CLR 55.4 55.4 100% 30.06 0.0
14 23:55 S 8 10.00 Fair CLR 55.4 55.4 100% 30.05 0.0
14 23:35 Calm 10.00 Fair CLR 55.4 55.4 100% 30.05 0.0
14 23:15 Calm 10.00 Fair CLR 55.4 55.4 100% 30.05 0.0
14 22:55 Calm 10.00 Fair CLR 55.4 55.4 100% 30.05 0.0
14 22:35 Calm 10.00 Fair CLR 57.2 57.2 100% 30.04 0.0
14 22:15 Calm 10.00 Fair CLR 59 59 100% 30.04 0.0
14 21:55 Calm 10.00 Fair CLR 60.8 60.8 100% 30.03 0.0
14 21:35 Calm 10.00 Fair CLR 60.8 60.8 100% 30.03 0.0
14 21:15 Calm 10.00 Fair CLR 60.8 60.8 100% 30.03 0.0
14 20:55 S 6 10.00 Fair CLR 62.6 60.8 94% 30.02 0.0
14 20:35 Calm 9.00 Fair CLR 64.4 59 83% 30.02 0.0
14 20:15 Calm 10.00 Fair CLR 66.2 59 78% 30.02 0.0
14 19:55 Calm 10.00 Fair CLR 68 59 73% 30.01 0.0
14 19:35 Calm 7.00 Fair CLR 69.8 57.2 64% 30.01 0.0
14 19:15 Calm 6.00 Fair with Haze CLR 73.4 57.2 57% 30.01 0.0
14 18:55 Calm 7.00 Fair CLR 73.4 57.2 57% 30.01 0.0
14 18:35 Calm 7.00 Fair CLR 73.4 57.2 57% 30.01 0.0
14 18:15 Calm 6.00 Fair with Haze CLR 75.2 57.2 54% 78 30.01 0.0
14 17:55 Calm 7.00 Fair CLR 75.2 59 57% 78 30 0.0
14 17:35 Calm 7.00 Fair CLR 77 60.8 57% 79 30 0.0
14 17:15 Calm 6.00 Fair with Haze CLR 78.8 60.8 54% 80 30 0.0
14 16:55 Calm 7.00 Fair CLR 78.8 60.8 54% 80 30.01 0.0
14 16:35 Calm 7.00 Fair CLR 78.8 60.8 54% 80 30.01 0.0
14 16:15 Calm 4.00 Fair with Haze CLR 78.8 60.8 54% 80 30.02 0.0
14 15:55 Calm 7.00 Fair CLR 78.8 60.8 54% 80 30.02 0.0
14 15:35 Calm 6.00 Fair with Haze CLR 80.6 62.6 54% 82 30.02 0.0
14 15:15 Calm 6.00 Fair with Haze CLR 78.8 59 51% 80 30.03 0.0
14 14:55 Calm 6.00 Fair with Haze CLR 78.8 59 51% 80 30.02 0.0
14 14:35 Calm 8.00 Fair CLR 78.8 60.8 54% 80 30.03 0.0
14 14:15 Calm 6.00 Fair with Haze CLR 77 62.6 61% 79 30.03 0.0
14 13:55 Calm 4.00 Fair with Haze CLR 77 62.6 61% 79 30.03 0.0
14 13:35 Calm 8.00 Fair CLR 77 62.6 61% 79 30.03 0.0
14 13:15 Calm 8.00 Fair CLR 77 62.6 61% 79 30.03 0.0
14 12:55 Calm 8.00 Fair CLR 75.2 62.6 65% 77 30.03 0.0
14 12:35 W 7 8.00 Fair CLR 75.2 62.6 65% 77 30.03 0.0
14 12:15 NW 8 9.00 Fair CLR 73.4 66.2 78% 30.03 0.0
14 11:55 W 7 9.00 Fair CLR 73.4 64.4 74% 30.04 0.0
14 11:35 NW 8 G 16 10.00 Fair CLR 73.4 64.4 74% 30.04 0.0
14 11:15 Calm 8.00 Fair CLR 71.6 64.4 78% 30.03 0.0
14 10:55 W 9 10.00 Fair CLR 71.6 66.2 83% 30.03 0.0
14 10:35 Calm 7.00 Fair CLR 71.6 66.2 83% 30.03 0.0
14 10:15 Calm 9.00 Fair CLR 71.6 66.2 83% 30.03 0.0
14 09:55 W 8 9.00 Fair CLR 71.6 66.2 83% 30.03 0.0
14 09:35 Calm 9.00 Fair CLR 69.8 66.2 88% 30.03 0.0
14 09:15 Calm 7.00 Fair CLR 69.8 66.2 88% 30.03 0.0
14 08:55 Calm 8.00 Fair CLR 69.8 66.2 88% 30.03 0.0
14 08:35 Calm 9.00 Fair CLR 68 66.2 94% 30.03 0.0
14 08:15 Calm 9.00 Fair CLR 66.2 66.2 100% 30.03 0.0
14 07:55 Calm 8.00 Fair CLR 64.4 64.4 100% 30.03 0.0
14 07:35 Calm 8.00 Fair CLR 62.6 62.6 100% 30.03 0.0
14 07:15 Calm 9.00 Fair CLR 60.8 60.8 100% 30.03 0.0
14 06:55 Calm 9.00 Fair CLR 60.8 60.8 100% 30.02 0.0
14 06:15 Calm 9.00 Fair CLR 57.2 57.2 100% 30.01 0.0
14 05:55 Calm 7.00 Fair CLR 57.2 57.2 100% 30.01 0.0
14 05:35 Calm 10.00 Fair CLR 57.2 57.2 100% 30 0.0
14 05:15 Calm 10.00 Fair CLR 55.4 55.4 100% 30 0.0
14 04:55 Calm 10.00 Fair CLR 57.2 57.2 100% 30 0.0
14 04:35 Calm 10.00 Fair CLR 55.4 55.4 100% 30 0.0
14 04:15 Calm 10.00 Fair CLR 55.4 55.4 100% 29.99 0.0
14 03:55 Calm 10.00 Fair CLR 55.4 55.4 100% 29.99 0.0
14 03:35 Calm 10.00 Fair CLR 55.4 55.4 100% 29.99 0.0
14 03:15 Calm 10.00 Fair CLR 55.4 55.4 100% 29.99 0.0
14 02:55 Calm 10.00 Fair CLR 59 59 100% 29.99 0.0
14 02:35 Calm 10.00 Fair CLR 57.2 57.2 100% 29.99 0.0
14 02:15 Calm 10.00 Fair CLR 57.2 57.2 100% 29.99 0.0
14 01:55 Calm 10.00 Fair CLR 59 59 100% 29.99 0.0
14 01:35 Calm 10.00 Fair CLR 59 59 100% 29.99 0.0
14 01:15 Calm 10.00 Fair CLR 59 59 100% 29.99 0.0
14 00:55 Calm 10.00 Fair CLR 59 59 100% 29.99 0.0
14 00:35 Calm 10.00 Fair CLR 57.2 57.2 100% 29.99 0.0
14 00:15 Calm 9.00 Fair CLR 59 59 100% 29.99 0.0
13 23:55 Calm 10.00 Fair CLR 60.8 60.8 100% 29.98 0.0
13 23:35 Calm 10.00 Fair CLR 59 59 100% 29.98 0.0
13 23:15 Calm 10.00 Fair CLR 59 59 100% 29.98 0.0
13 22:55 Calm 10.00 Fair CLR 59 59 100% 29.97 0.0
13 22:35 Calm 10.00 Fair CLR 60.8 60.8 100% 29.97 0.0
13 22:15 Calm 10.00 Fair CLR 60.8 60.8 100% 29.97 0.0
13 21:55 Calm 10.00 Fair CLR 62.6 62.6 100% 29.97 0.0
13 21:35 Calm 10.00 Fair CLR 64.4 62.6 94% 29.97 0.0
13 21:15 Calm 10.00 Fair CLR 66.2 59 78% 29.96 0.0
13 20:55 Calm 10.00 Fair CLR 69.8 55.4 60% 29.96 0.0
13 20:35 Calm 9.00 Fair CLR 71.6 55.4 57% 29.96 0.0
13 20:15 Calm 10.00 Fair CLR 71.6 57.2 61% 29.96 0.0
13 19:55 Calm 9.00 Fair CLR 73.4 57.2 57% 29.96 0.0
13 19:35 Calm 8.00 Fair CLR 73.4 57.2 57% 29.96 0.0
13 19:15 NW 5 G 13 8.00 Fair CLR 73.4 59 61% 29.96 0.0
13 18:55 Calm 9.00 Fair CLR 75.2 60.8 61% 77 29.96 0.0
13 18:35 W 12 7.00 Fair CLR 75.2 59 57% 78 29.96 0.0
13 18:15 W 10 8.00 Fair CLR 75.2 59 57% 78 29.96 0.0
13 17:55 W 10 G 18 9.00 Fair CLR 75.2 60.8 61% 77 29.97 0.0
13 17:35 W 15 8.00 Fair CLR 75.2 60.8 61% 77 29.97 0.0
13 17:15 W 12 8.00 Fair CLR 77 62.6 61% 79 29.98 0.0
13 16:55 NW 14 9.00 Fair CLR 77 62.6 61% 79 29.98 0.0
13 16:35 W 8 G 18 7.00 Fair CLR 77 60.8 57% 79 29.99 0.0
13 16:15 NW 13 7.00 Fair CLR 77 62.6 61% 79 29.99 0.0
13 15:55 NW 14 9.00 Fair CLR 77 60.8 57% 79 29.99 0.0
13 15:35 W 12 8.00 Fair CLR 77 62.6 61% 79 30 0.0
13 15:15 Calm 9.00 Fair CLR 77 62.6 61% 79 30 0.0
13 14:55 W 8 5.00 Fair with Haze CLR 77 60.8 57% 79 30.01 0.0
13 14:35 Calm 8.00 Fair CLR 77 62.6 61% 79 30.01 0.0
13 14:15 Calm 8.00 Fair CLR 77 66.2 69% 79 30.01 0.0
13 13:55 NW 9 7.00 Fair CLR 75.2 68 78% 76 30.01 0.0
13 13:35 Calm 7.00 Fair CLR 75.2 68 78% 76 30.02 0.0
13 13:15 Calm 8.00 Fair CLR 75.2 68 78% 76 30.02 0.0
13 12:55 NW 5 G 12 7.00 Fair CLR 75.2 68 78% 76 30.02 0.0
13 12:35 NW 3 G 12 8.00 Fair CLR 73.4 68 83% 30.02 0.0
13 12:15 W 3 G 12 9.00 Fair CLR 73.4 68 83% 30.03 0.0
13 11:55 Calm 8.00 Fair CLR 71.6 68 88% 30.03 0.0
13 11:35 NW 7 G 14 8.00 Fair CLR 71.6 68 88% 30.03 0.0
13 11:15 NW 12 8.00 Fair CLR 71.6 68 88% 30.03 0.0
13 10:55 Calm 7.00 Fair CLR 71.6 68 88% 30.03 0.0
13 10:35 NW 9 8.00 Fair CLR 71.6 68 88% 30.03 0.0
13 10:15 Calm 9.00 Fair CLR 69.8 68 94% 30.03 0.0
13 09:55 Calm 9.00 Fair CLR 69.8 66.2 88% 30.04 0.0
13 09:35 Calm 9.00 Fair CLR 68 66.2 94% 30.04 0.0
13 08:55 Calm 9.00 Fair CLR 68 66.2 94% 30.04 0.0
13 08:35 Calm 9.00 Fair CLR 68 66.2 94% 30.05 0.0
13 08:15 Calm 9.00 Fair CLR 66.2 66.2 100% 30.05 0.0
13 07:55 Calm 9.00 Fair CLR 62.6 62.6 100% 30.05 0.0
13 07:35 Calm 10.00 Fair CLR 60.8 60.8 100% 30.05 0.0
13 07:15 Calm 10.00 Fair CLR 59 59 100% 30.04 0.0
13 06:55 Calm 10.00 Fair CLR 59 59 100% 30.04 0.0
13 06:35 Calm 9.00 Fair CLR 55.4 55.4 100% 30.04 0.0
13 06:15 Calm 8.00 Fair CLR 53.6 53.6 100% 30.04 0.0
13 05:35 Calm 9.00 Fair CLR 53.6 53.6 100% 30.03 0.0
13 05:15 Calm 10.00 Fair CLR 53.6 53.6 100% 30.02 0.0
13 04:55 Calm 10.00 Fair CLR 51.8 51.8 100% 30.03 0.0
Date Time (pdt) Wind (mph) Vis. (mi.) Weather Sky Cond. Air Dwpt Max. Min. Relative Humidity Wind Chill (°F) Heat Index (°F) altimeter (in) sea level (mb) 1 hr 3 hr 6 hr
6 hour
Temperature (ºF) Pressure Precipitation (in)